TimeCST,TemperatureF,Dew PointF,Humidity,Sea Level PressureIn,VisibilityMPH,Wind Direction,Wind SpeedMPH,Gust SpeedMPH,PrecipitationIn,Events,Conditions,WindDirDegrees,DateUTC
12:15 AM,42.8,30.2,61,29.91,10.0,East,9.2,-,N/A,,Clear,90,2013-02-24 06:15:00
12:35 AM,42.8,30.2,61,29.91,10.0,East,10.4,-,N/A,,Clear,90,2013-02-24 06:35:00
12:55 AM,42.8,30.2,61,29.91,10.0,East,10.4,-,N/A,,Clear,80,2013-02-24 06:55:00
1:15 AM,42.8,30.2,61,29.92,10.0,ESE,9.2,-,N/A,,Clear,110,2013-02-24 07:15:00
1:35 AM,39.2,30.2,70,29.93,10.0,SSE,5.8,-,N/A,,Clear,150,2013-02-24 07:35:00
1:55 AM,37.4,30.2,75,29.93,10.0,SSE,5.8,-,N/A,,Clear,160,2013-02-24 07:55:00
2:15 AM,35.6,30.2,81,29.93,10.0,Calm,Calm,-,N/A,,Clear,0,2013-02-24 08:15:00
2:35 AM,37.4,30.2,75,29.92,10.0,ESE,4.6,-,N/A,,Clear,110,2013-02-24 08:35:00
2:55 AM,37.4,30.2,75,29.91,10.0,ESE,4.6,-,N/A,,Clear,110,2013-02-24 08:55:00
3:15 AM,39.2,32.0,75,29.90,10.0,ESE,6.9,-,N/A,,Clear,110,2013-02-24 09:15:00
3:35 AM,41.0,32.0,70,29.89,10.0,ESE,5.8,-,N/A,,Clear,110,2013-02-24 09:35:00
3:55 AM,41.0,32.0,70,29.89,10.0,ESE,4.6,-,N/A,,Clear,120,2013-02-24 09:55:00
4:15 AM,41.0,32.0,70,29.87,10.0,East,8.1,-,N/A,,Clear,100,2013-02-24 10:15:00
4:35 AM,42.8,32.0,66,29.87,10.0,ESE,5.8,-,N/A,,Clear,110,2013-02-24 10:35:00
4:55 AM,42.8,32.0,66,29.88,10.0,ESE,3.5,-,N/A,,Clear,110,2013-02-24 10:55:00
5:15 AM,41.0,32.0,70,29.90,10.0,East,4.6,-,N/A,,Clear,100,2013-02-24 11:15:00
5:35 AM,41.0,32.0,70,29.90,10.0,East,10.4,-,N/A,,Clear,100,2013-02-24 11:35:00
5:55 AM,41.0,32.0,70,29.90,10.0,East,10.4,-,N/A,,Clear,100,2013-02-24 11:55:00
6:15 AM,42.8,32.0,66,29.90,10.0,East,9.2,-,N/A,,Clear,100,2013-02-24 12:15:00
6:35 AM,42.8,32.0,66,29.90,10.0,ESE,9.2,-,N/A,,Clear,110,2013-02-24 12:35:00
6:55 AM,42.8,33.8,70,29.89,10.0,East,12.7,-,N/A,,Clear,100,2013-02-24 12:55:00
7:15 AM,42.8,33.8,70,29.90,10.0,East,10.4,-,N/A,,Clear,100,2013-02-24 13:15:00
7:35 AM,42.8,33.8,70,29.90,10.0,East,11.5,-,N/A,,Clear,100,2013-02-24 13:35:00
7:55 AM,44.6,35.6,71,29.91,10.0,ESE,10.4,-,N/A,,Clear,120,2013-02-24 13:55:00
8:15 AM,44.6,35.6,71,29.92,10.0,ESE,12.7,-,N/A,,Clear,120,2013-02-24 14:15:00
8:35 AM,46.4,37.4,71,29.90,10.0,ESE,16.1,20.7,N/A,,Clear,120,2013-02-24 14:35:00
8:55 AM,48.2,39.2,71,29.91,10.0,SE,15.0,21.9,N/A,,Clear,130,2013-02-24 14:55:00
9:15 AM,50.0,41.0,71,29.92,10.0,SE,12.7,-,N/A,,Clear,140,2013-02-24 15:15:00
9:35 AM,51.8,42.8,71,29.92,10.0,SE,11.5,16.1,N/A,,Clear,140,2013-02-24 15:35:00
9:55 AM,53.6,42.8,67,29.91,10.0,SE,13.8,-,N/A,,Clear,140,2013-02-24 15:55:00
10:15 AM,55.4,44.6,67,29.90,10.0,SE,16.1,19.6,N/A,,Clear,130,2013-02-24 16:15:00
10:35 AM,59.0,44.6,59,29.90,10.0,SE,17.3,-,N/A,,Clear,140,2013-02-24 16:35:00
10:55 AM,60.8,44.6,55,29.89,10.0,SE,13.8,19.6,N/A,,Clear,140,2013-02-24 16:55:00
11:15 AM,60.8,44.6,55,29.88,10.0,SE,15.0,-,N/A,,Clear,130,2013-02-24 17:15:00
11:35 AM,62.6,42.8,48,29.87,10.0,SSE,16.1,23.0,N/A,,Clear,150,2013-02-24 17:35:00
11:55 AM,62.6,44.6,52,29.86,10.0,SSE,13.8,-,N/A,,Clear,150,2013-02-24 17:55:00
12:15 PM,64.4,42.8,45,29.84,10.0,SSE,15.0,20.7,N/A,,Clear,150,2013-02-24 18:15:00
12:35 PM,64.4,41.0,42,29.83,10.0,SE,15.0,20.7,N/A,,Clear,140,2013-02-24 18:35:00
12:55 PM,66.2,41.0,40,29.82,10.0,SE,16.1,-,N/A,,Clear,130,2013-02-24 18:55:00
1:15 PM,66.2,41.0,40,29.81,10.0,SE,13.8,-,N/A,,Clear,130,2013-02-24 19:15:00
1:35 PM,68.0,41.0,37,29.79,10.0,SE,12.7,-,N/A,,Clear,140,2013-02-24 19:35:00
1:55 PM,68.0,42.8,40,29.77,10.0,ESE,11.5,-,N/A,,Clear,120,2013-02-24 19:55:00
2:15 PM,68.0,42.8,40,29.75,10.0,ESE,15.0,18.4,N/A,,Clear,110,2013-02-24 20:15:00
2:35 PM,69.8,41.0,35,29.74,10.0,ESE,16.1,21.9,N/A,,Clear,110,2013-02-24 20:35:00
2:55 PM,69.8,41.0,35,29.73,10.0,SE,20.7,27.6,N/A,,Clear,130,2013-02-24 20:55:00
3:15 PM,69.8,41.0,35,29.73,10.0,SE,15.0,19.6,N/A,,Clear,130,2013-02-24 21:15:00
3:35 PM,69.8,39.2,33,29.72,10.0,SE,11.5,25.3,N/A,,Clear,140,2013-02-24 21:35:00
3:55 PM,69.8,39.2,33,29.72,10.0,SE,15.0,21.9,N/A,,Clear,130,2013-02-24 21:55:00
4:15 PM,69.8,41.0,35,29.72,10.0,SE,15.0,-,N/A,,Clear,130,2013-02-24 22:15:00
4:35 PM,69.8,39.2,33,29.71,10.0,SE,18.4,23.0,N/A,,Clear,130,2013-02-24 22:35:00
4:55 PM,69.8,39.2,33,29.71,10.0,ESE,11.5,17.3,N/A,,Clear,120,2013-02-24 22:55:00
5:15 PM,68.0,39.2,35,29.70,10.0,SE,11.5,-,N/A,,Clear,130,2013-02-24 23:15:00
5:35 PM,68.0,41.0,37,29.70,10.0,SE,15.0,-,N/A,,Scattered Clouds,140,2013-02-24 23:35:00
5:55 PM,64.4,41.0,42,29.70,10.0,ESE,9.2,-,N/A,,Scattered Clouds,120,2013-02-24 23:55:00
6:15 PM,64.4,41.0,42,29.70,10.0,ESE,9.2,-,N/A,,Scattered Clouds,110,2013-02-25 00:15:00
6:35 PM,62.6,41.0,45,29.70,10.0,ESE,8.1,-,N/A,,Clear,110,2013-02-25 00:35:00
6:55 PM,62.6,41.0,45,29.70,10.0,ESE,10.4,-,N/A,,Clear,110,2013-02-25 00:55:00
7:15 PM,62.6,41.0,45,29.70,10.0,ESE,8.1,-,N/A,,Clear,110,2013-02-25 01:15:00
7:35 PM,60.8,41.0,48,29.69,10.0,ESE,12.7,-,N/A,,Clear,110,2013-02-25 01:35:00
7:55 PM,60.8,39.2,45,29.69,10.0,ESE,13.8,18.4,N/A,,Clear,110,2013-02-25 01:55:00
8:15 PM,60.8,37.4,42,29.69,10.0,ESE,12.7,-,N/A,,Clear,120,2013-02-25 02:15:00
8:35 PM,60.8,37.4,42,29.69,10.0,ESE,12.7,17.3,N/A,,Clear,120,2013-02-25 02:35:00
8:55 PM,60.8,39.2,45,29.70,10.0,ESE,11.5,-,N/A,,Clear,110,2013-02-25 02:55:00
9:15 PM,59.0,41.0,51,29.69,10.0,ESE,11.5,-,N/A,,Clear,120,2013-02-25 03:15:00
9:35 PM,59.0,41.0,51,29.69,10.0,ESE,11.5,17.3,N/A,,Scattered Clouds,120,2013-02-25 03:35:00
9:55 PM,59.0,41.0,51,29.68,10.0,ESE,10.4,-,N/A,,Mostly Cloudy,110,2013-02-25 03:55:00
10:15 PM,59.0,42.8,55,29.68,10.0,ESE,10.4,-,N/A,,Scattered Clouds,110,2013-02-25 04:15:00
10:35 PM,59.0,42.8,55,29.68,10.0,East,11.5,18.4,N/A,,Mostly Cloudy,100,2013-02-25 04:35:00
10:55 PM,57.2,42.8,59,29.66,10.0,ESE,15.0,18.4,N/A,,Scattered Clouds,110,2013-02-25 04:55:00
11:15 PM,55.4,42.8,63,29.64,10.0,East,12.7,18.4,N/A,,Scattered Clouds,100,2013-02-25 05:15:00
11:35 PM,55.4,42.8,63,29.62,10.0,East,15.0,-,N/A,,Scattered Clouds,100,2013-02-25 05:35:00
11:55 PM,55.4,44.6,67,29.61,10.0,ESE,15.0,20.7,N/A,,Scattered Clouds,110,2013-02-25 05:55:00